Year,Month,Day,Hour,Minute,Value (Times are PST for temperature in C)
2013,05,01,00,00,3.10
2013,05,01,00,01,3.10
2013,05,01,00,02,3.10
2013,05,01,00,03,3.10
2013,05,01,00,04,3.10
2013,05,01,00,05,3.10
2013,05,01,00,06,3.00
2013,05,01,00,07,3.00
2013,05,01,00,08,2.90
2013,05,01,00,09,2.90
2013,05,01,00,10,2.90
2013,05,01,00,11,2.90
2013,05,01,00,12,2.90
2013,05,01,00,13,2.80
2013,05,01,00,14,2.80
2013,05,01,00,15,2.80
2013,05,01,00,16,2.70
2013,05,01,00,17,2.70
2013,05,01,00,18,2.70
2013,05,01,00,19,2.70
2013,05,01,00,20,2.60
2013,05,01,00,21,2.60
2013,05,01,00,22,2.60
2013,05,01,00,23,2.50
2013,05,01,00,24,2.50
2013,05,01,00,25,2.40
2013,05,01,00,26,2.40
2013,05,01,00,27,2.40
2013,05,01,00,28,2.40
2013,05,01,00,29,2.30
2013,05,01,00,30,2.30
2013,05,01,00,31,2.30
2013,05,01,00,32,2.30
2013,05,01,00,33,2.30
2013,05,01,00,34,2.30
2013,05,01,00,35,2.40
2013,05,01,00,36,2.40
2013,05,01,00,37,2.40
2013,05,01,00,38,2.50
2013,05,01,00,41,2.60
2013,05,01,00,42,2.60
2013,05,01,00,43,2.60
2013,05,01,00,44,2.60
2013,05,01,00,45,2.50
2013,05,01,00,46,2.50
2013,05,01,00,47,2.40
2013,05,01,00,48,2.40
2013,05,01,00,49,2.40
2013,05,01,00,50,2.40
2013,05,01,00,51,2.30
2013,05,01,00,52,2.30
2013,05,01,00,53,2.30
2013,05,01,00,54,2.30
2013,05,01,00,55,2.30
2013,05,01,00,56,2.20
2013,05,01,00,57,2.20
2013,05,01,00,58,2.20
2013,05,01,00,59,2.20
2013,05,01,01,00,2.20
2013,05,01,01,01,2.20
2013,05,01,01,02,2.30
2013,05,01,01,03,2.30
2013,05,01,01,04,2.30
2013,05,01,01,05,2.40
2013,05,01,01,06,2.40
2013,05,01,01,07,2.50
2013,05,01,01,08,2.50
2013,05,01,01,09,2.50
2013,05,01,01,10,2.60
2013,05,01,01,11,2.60
2013,05,01,01,12,2.60
2013,05,01,01,13,2.70
2013,05,01,01,14,2.70
2013,05,01,01,15,2.70
2013,05,01,01,16,2.70
2013,05,01,01,17,2.70
2013,05,01,01,18,2.70
2013,05,01,01,19,2.70
2013,05,01,01,20,2.70
2013,05,01,01,21,2.70
2013,05,01,01,22,2.70
2013,05,01,01,23,2.70
2013,05,01,01,24,2.70
2013,05,01,01,25,2.70
2013,05,01,01,26,2.70
2013,05,01,01,27,2.60
2013,05,01,01,28,2.60
2013,05,01,01,29,2.60
2013,05,01,01,30,2.60
2013,05,01,01,31,2.60
2013,05,01,01,32,2.60
2013,05,01,01,33,2.60
2013,05,01,01,34,2.60
2013,05,01,01,35,2.50
2013,05,01,01,36,2.50
2013,05,01,01,37,2.50
2013,05,01,01,38,2.50
2013,05,01,01,39,2.40
2013,05,01,01,40,2.40
2013,05,01,01,41,2.40
2013,05,01,01,42,2.40
2013,05,01,01,43,2.40
2013,05,01,01,44,2.40
2013,05,01,01,45,2.40
2013,05,01,01,46,2.30
2013,05,01,01,47,2.30
2013,05,01,01,48,2.30
2013,05,01,01,49,2.30
2013,05,01,01,50,2.30
2013,05,01,01,51,2.30
2013,05,01,01,52,2.30
2013,05,01,01,53,2.20
2013,05,01,01,54,2.20
2013,05,01,01,55,2.20
2013,05,01,01,56,2.10
2013,05,01,01,57,2.10
2013,05,01,01,58,2.10
2013,05,01,01,59,2.00
2013,05,01,02,00,2.00
2013,05,01,02,01,2.00
2013,05,01,02,02,1.90
2013,05,01,02,03,1.90
2013,05,01,02,04,1.90
2013,05,01,02,05,1.90
2013,05,01,02,06,1.90
2013,05,01,02,07,1.90
2013,05,01,02,08,1.90
2013,05,01,02,09,1.80
2013,05,01,02,10,1.80
2013,05,01,02,11,1.80
2013,05,01,02,12,1.80
2013,05,01,02,13,1.80
2013,05,01,02,14,1.90
2013,05,01,02,15,1.90
2013,05,01,02,16,1.90
2013,05,01,02,17,2.00
2013,05,01,02,18,2.00
2013,05,01,02,19,2.10
2013,05,01,02,20,2.10
2013,05,01,02,21,2.10
2013,05,01,02,22,2.20
2013,05,01,02,23,2.20
2013,05,01,02,24,2.20
2013,05,01,02,25,2.30
2013,05,01,02,26,2.30
2013,05,01,02,27,2.30
2013,05,01,02,28,2.30
2013,05,01,02,29,2.40
2013,05,01,02,30,2.40
2013,05,01,02,31,2.40
2013,05,01,02,32,2.40
2013,05,01,02,33,2.50
2013,05,01,02,34,2.40
2013,05,01,02,35,2.40
2013,05,01,02,36,2.40
2013,05,01,02,37,2.40
2013,05,01,02,38,2.40
2013,05,01,02,39,2.40
2013,05,01,02,40,2.30
2013,05,01,02,41,2.30
2013,05,01,02,42,2.30
2013,05,01,02,43,2.20
2013,05,01,02,44,2.20
2013,05,01,02,45,2.10
2013,05,01,02,46,2.10
2013,05,01,02,47,2.00
2013,05,01,02,48,2.00
2013,05,01,02,49,2.00
2013,05,01,02,50,1.90
2013,05,01,02,51,1.90
2013,05,01,02,52,1.90
2013,05,01,02,53,1.90
2013,05,01,02,54,1.90
2013,05,01,02,55,1.90
2013,05,01,02,56,1.80
2013,05,01,02,57,1.80
2013,05,01,02,58,1.80
2013,05,01,02,59,1.80
2013,05,01,03,00,1.70
2013,05,01,03,01,1.70
2013,05,01,03,02,1.70
2013,05,01,03,03,1.70
2013,05,01,03,04,1.70
2013,05,01,03,05,1.70
2013,05,01,03,06,1.60
2013,05,01,03,07,1.60
2013,05,01,03,08,1.60
2013,05,01,03,09,1.60
2013,05,01,03,10,1.50
2013,05,01,03,11,1.50
2013,05,01,03,12,1.50
2013,05,01,03,13,1.50
2013,05,01,03,14,1.50
2013,05,01,03,15,1.50
2013,05,01,03,16,1.50
2013,05,01,03,17,1.50
2013,05,01,03,18,1.50
2013,05,01,03,19,1.50
2013,05,01,03,20,1.40
2013,05,01,03,21,1.40
2013,05,01,03,22,1.50
2013,05,01,03,23,1.40
2013,05,01,03,24,1.40
2013,05,01,03,25,1.40
2013,05,01,03,26,1.30
2013,05,01,03,27,1.30
2013,05,01,03,28,1.30
2013,05,01,03,29,1.30
2013,05,01,03,30,1.30
2013,05,01,03,31,1.30
2013,05,01,03,32,1.30
2013,05,01,03,33,1.30
2013,05,01,03,34,1.30
2013,05,01,03,35,1.30
2013,05,01,03,36,1.20
2013,05,01,03,37,1.20
2013,05,01,03,38,1.20
2013,05,01,03,39,1.20
2013,05,01,03,40,1.20
2013,05,01,03,41,1.10
2013,05,01,03,42,1.10
2013,05,01,03,43,1.10
2013,05,01,03,44,1.10
2013,05,01,03,45,1.10
2013,05,01,03,46,1.10
2013,05,01,03,47,1.10
2013,05,01,03,48,1.00
2013,05,01,03,49,1.00
2013,05,01,03,50,1.00
2013,05,01,03,51,0.90
2013,05,01,03,52,0.90
2013,05,01,03,53,0.90
2013,05,01,03,54,0.90
2013,05,01,03,55,0.90
2013,05,01,03,56,0.80
2013,05,01,03,57,0.80
2013,05,01,03,58,0.80
2013,05,01,03,59,0.80
2013,05,01,04,00,0.80
2013,05,01,04,01,0.70
2013,05,01,04,02,0.70
2013,05,01,04,03,0.70
2013,05,01,04,04,0.70
2013,05,01,04,05,0.70
2013,05,01,04,06,0.70
2013,05,01,04,07,0.70
2013,05,01,04,08,0.70
2013,05,01,04,09,0.70
2013,05,01,04,10,0.70
2013,05,01,04,11,0.60
2013,05,01,04,12,0.60
2013,05,01,04,13,0.60
2013,05,01,04,14,0.60
2013,05,01,04,15,0.60
2013,05,01,04,16,0.60
2013,05,01,04,17,0.50
2013,05,01,04,18,0.50
2013,05,01,04,19,0.50
2013,05,01,04,20,0.50
2013,05,01,04,21,0.40
2013,05,01,04,22,0.40
2013,05,01,04,23,0.40
2013,05,01,04,24,0.40
2013,05,01,04,25,0.40
2013,05,01,04,26,0.40
2013,05,01,04,27,0.40
2013,05,01,04,28,0.30
2013,05,01,04,29,0.30
2013,05,01,04,30,0.30
2013,05,01,04,31,0.30
2013,05,01,04,32,0.30
2013,05,01,04,33,0.30
2013,05,01,04,34,0.30
2013,05,01,04,35,0.30
2013,05,01,04,36,0.30
2013,05,01,04,37,0.20
2013,05,01,04,38,0.20
2013,05,01,04,39,0.20
2013,05,01,04,40,0.20
2013,05,01,04,41,0.20
2013,05,01,04,42,0.20
2013,05,01,04,43,0.20
2013,05,01,04,44,0.10
2013,05,01,04,45,0.10
2013,05,01,04,46,0.10
2013,05,01,04,47,0.10
2013,05,01,04,48,0.10
2013,05,01,04,49,0.10
2013,05,01,04,50,0.10
2013,05,01,04,51,0.00
2013,05,01,04,52,0.00
2013,05,01,04,53,0.00
2013,05,01,04,54,-0.10
2013,05,01,04,55,-0.10
2013,05,01,04,56,-0.10
2013,05,01,04,57,-0.10
2013,05,01,04,58,-0.10
2013,05,01,04,59,-0.10
2013,05,01,05,00,-0.20
2013,05,01,05,01,-0.20
2013,05,01,05,02,-0.20
2013,05,01,05,03,-0.20
2013,05,01,05,04,-0.20
2013,05,01,05,05,-0.20
2013,05,01,05,06,-0.20
2013,05,01,05,07,-0.20
2013,05,01,05,08,-0.20
2013,05,01,05,09,-0.20
2013,05,01,05,10,-0.20
2013,05,01,05,11,-0.20
2013,05,01,05,12,-0.20
2013,05,01,05,13,-0.20
2013,05,01,05,14,-0.20
2013,05,01,05,15,-0.20
2013,05,01,05,16,-0.20
2013,05,01,05,17,-0.20
2013,05,01,05,18,-0.20
2013,05,01,05,19,-0.30
2013,05,01,05,20,-0.30
2013,05,01,05,21,-0.30
2013,05,01,05,22,-0.30
2013,05,01,05,23,-0.30
2013,05,01,05,24,-0.30
2013,05,01,05,25,-0.30
2013,05,01,05,26,-0.30
2013,05,01,05,27,-0.30
2013,05,01,05,28,-0.30
2013,05,01,05,29,-0.30
2013,05,01,05,30,-0.30
2013,05,01,05,31,-0.30
2013,05,01,05,32,-0.40
2013,05,01,05,33,-0.40
2013,05,01,05,34,-0.40
2013,05,01,05,35,-0.40
2013,05,01,05,36,-0.40
2013,05,01,05,37,-0.40
2013,05,01,05,38,-0.40
2013,05,01,05,39,-0.40
2013,05,01,05,40,-0.40
2013,05,01,05,41,-0.50
2013,05,01,05,42,-0.50
2013,05,01,05,43,-0.50
2013,05,01,05,44,-0.50
2013,05,01,05,45,-0.50
2013,05,01,05,46,-0.50
2013,05,01,05,47,-0.50
2013,05,01,05,48,-0.50
2013,05,01,05,49,-0.50
2013,05,01,05,50,-0.50
2013,05,01,05,51,-0.60
2013,05,01,05,52,-0.60
2013,05,01,05,53,-0.60
2013,05,01,05,54,-0.60
2013,05,01,05,55,-0.60
2013,05,01,05,56,-0.60
2013,05,01,05,57,-0.60
2013,05,01,05,58,-0.60
2013,05,01,05,59,-0.60
2013,05,01,06,00,-0.60
2013,05,01,06,01,-0.60
2013,05,01,06,02,-0.60
2013,05,01,06,03,-0.60
2013,05,01,06,04,-0.60
2013,05,01,06,05,-0.60
2013,05,01,06,06,-0.60
2013,05,01,06,07,-0.60
2013,05,01,06,08,-0.60
2013,05,01,06,09,-0.60
2013,05,01,06,10,-0.60
2013,05,01,06,11,-0.70
2013,05,01,06,14,-0.70
2013,05,01,06,15,-0.70
2013,05,01,06,16,-0.70
2013,05,01,06,17,-0.70
2013,05,01,06,18,-0.70
2013,05,01,06,19,-0.70
2013,05,01,06,20,-0.70
2013,05,01,06,21,-0.70
2013,05,01,06,22,-0.70
2013,05,01,06,23,-0.70
2013,05,01,06,24,-0.70
2013,05,01,06,25,-0.70
2013,05,01,06,26,-0.70
2013,05,01,06,27,-0.70
2013,05,01,06,28,-0.70
2013,05,01,06,29,-0.80
2013,05,01,06,30,-0.80
2013,05,01,06,31,-0.80
2013,05,01,06,32,-0.80
2013,05,01,06,33,-0.70
2013,05,01,06,34,-0.70
2013,05,01,06,35,-0.70
2013,05,01,06,36,-0.70
2013,05,01,06,37,-0.70
2013,05,01,06,38,-0.70
2013,05,01,06,39,-0.70
2013,05,01,06,40,-0.70
2013,05,01,06,41,-0.70
2013,05,01,06,42,-0.70
2013,05,01,06,43,-0.70
2013,05,01,06,44,-0.70
2013,05,01,06,45,-0.70
2013,05,01,06,46,-0.70
2013,05,01,06,47,-0.70
2013,05,01,06,48,-0.70
2013,05,01,06,49,-0.70
2013,05,01,06,50,-0.70
2013,05,01,06,51,-0.70
2013,05,01,06,52,-0.70
2013,05,01,06,53,-0.70
2013,05,01,06,54,-0.70
2013,05,01,06,55,-0.70
2013,05,01,06,56,-0.70
2013,05,01,06,57,-0.70
2013,05,01,06,58,-0.70
2013,05,01,06,59,-0.70
2013,05,01,07,00,-0.60
2013,05,01,07,01,-0.60
2013,05,01,07,02,-0.60
2013,05,01,07,03,-0.60
2013,05,01,07,04,-0.60
2013,05,01,07,05,-0.60
2013,05,01,07,06,-0.60
2013,05,01,07,07,-0.60
2013,05,01,07,08,-0.60
2013,05,01,07,09,-0.60
2013,05,01,07,10,-0.50
2013,05,01,07,11,-0.50
2013,05,01,07,12,-0.50
2013,05,01,07,13,-0.40
2013,05,01,07,14,-0.40
2013,05,01,07,15,-0.40
2013,05,01,07,16,-0.40
2013,05,01,07,17,-0.30
2013,05,01,07,18,-0.30
2013,05,01,07,19,-0.30
2013,05,01,07,20,-0.20
2013,05,01,07,21,-0.20
2013,05,01,07,22,-0.10
2013,05,01,07,23,-0.10
2013,05,01,07,24,-0.10
2013,05,01,07,25,-0.10
2013,05,01,07,26,0.00
2013,05,01,07,27,0.00
2013,05,01,07,28,0.10
2013,05,01,07,29,0.10
2013,05,01,07,30,0.10
2013,05,01,07,31,0.20
2013,05,01,07,32,0.20
2013,05,01,07,33,0.20
2013,05,01,07,34,0.30
2013,05,01,07,35,0.30
2013,05,01,07,36,0.30
2013,05,01,07,37,0.30
2013,05,01,07,38,0.30
2013,05,01,07,39,0.40
2013,05,01,07,40,0.40
2013,05,01,07,41,0.50
2013,05,01,07,42,0.50
2013,05,01,07,43,0.60
2013,05,01,07,44,0.60
2013,05,01,07,45,0.70
2013,05,01,07,46,0.80
2013,05,01,07,47,0.80
2013,05,01,07,48,0.90
2013,05,01,07,49,1.00
2013,05,01,07,50,1.10
2013,05,01,07,51,1.10
2013,05,01,07,52,1.20
2013,05,01,07,53,1.30
2013,05,01,07,54,1.30
2013,05,01,07,55,1.30
2013,05,01,07,56,1.40
2013,05,01,07,57,1.50
2013,05,01,07,58,1.60
2013,05,01,07,59,1.70
2013,05,01,08,00,1.80
2013,05,01,08,01,1.90
2013,05,01,08,02,2.00
2013,05,01,08,03,2.10
2013,05,01,08,04,2.20
2013,05,01,08,05,2.30
2013,05,01,08,06,2.50
2013,05,01,08,07,2.60
2013,05,01,08,08,2.70
2013,05,01,08,09,2.70
2013,05,01,08,10,2.80
2013,05,01,08,11,2.90
2013,05,01,08,12,2.90
2013,05,01,08,13,3.00
2013,05,01,08,14,3.10
2013,05,01,08,15,3.10
2013,05,01,08,16,3.20
2013,05,01,08,17,3.20
2013,05,01,08,18,3.30
2013,05,01,08,19,3.40
2013,05,01,08,20,3.50
2013,05,01,08,21,3.50
2013,05,01,08,22,3.60
2013,05,01,08,23,3.70
2013,05,01,08,24,3.80
2013,05,01,08,25,3.80
2013,05,01,08,26,3.90
2013,05,01,08,27,4.00
2013,05,01,08,28,4.00
2013,05,01,08,29,4.10
2013,05,01,08,30,4.10
2013,05,01,08,31,4.20
2013,05,01,08,32,4.20
2013,05,01,08,33,4.30
2013,05,01,08,34,4.30
2013,05,01,08,35,4.40
2013,05,01,08,36,4.40
2013,05,01,08,37,4.50
2013,05,01,08,38,4.50
2013,05,01,08,39,4.60
2013,05,01,08,40,4.60
2013,05,01,08,41,4.60
2013,05,01,08,42,4.70
2013,05,01,08,43,4.70
2013,05,01,08,44,4.80
2013,05,01,08,45,4.80
2013,05,01,08,46,4.80
2013,05,01,08,47,4.90
2013,05,01,08,48,4.90
2013,05,01,08,49,5.00
2013,05,01,08,50,5.00
2013,05,01,08,51,5.10
2013,05,01,08,52,5.10
2013,05,01,08,53,5.10
2013,05,01,08,54,5.20
2013,05,01,08,55,5.20
2013,05,01,08,56,5.30
2013,05,01,08,57,5.30
2013,05,01,08,58,5.40
2013,05,01,08,59,5.50
2013,05,01,09,00,5.50
2013,05,01,09,01,5.60
2013,05,01,09,02,5.60
2013,05,01,09,03,5.70
2013,05,01,09,04,5.70
2013,05,01,09,05,5.80
2013,05,01,09,06,5.80
2013,05,01,09,07,5.90
2013,05,01,09,08,6.00
2013,05,01,09,09,6.10
2013,05,01,09,10,6.20
2013,05,01,09,11,6.30
2013,05,01,09,12,6.30
2013,05,01,09,13,6.40
2013,05,01,09,14,6.40
2013,05,01,09,15,6.40
2013,05,01,09,16,6.50
2013,05,01,09,17,6.60
2013,05,01,09,18,6.60
2013,05,01,09,19,6.70
2013,05,01,09,20,6.70
2013,05,01,09,21,6.80
2013,05,01,09,22,6.90
2013,05,01,09,23,7.00
2013,05,01,09,24,7.10
2013,05,01,09,25,7.20
2013,05,01,09,26,7.30
2013,05,01,09,27,7.40
2013,05,01,09,28,7.40
2013,05,01,09,29,7.40
2013,05,01,09,30,7.50
2013,05,01,09,31,7.50
2013,05,01,09,32,7.60
2013,05,01,09,33,7.60
2013,05,01,09,34,7.70
2013,05,01,09,35,7.80
2013,05,01,09,36,7.90
2013,05,01,09,37,7.90
2013,05,01,09,38,8.00
2013,05,01,09,39,8.10
2013,05,01,09,40,8.10
2013,05,01,09,41,8.20
2013,05,01,09,42,8.20
2013,05,01,09,43,8.20
2013,05,01,09,44,8.20
2013,05,01,09,45,8.20
2013,05,01,09,46,8.30
2013,05,01,09,47,8.30
2013,05,01,09,48,8.30
2013,05,01,09,49,8.40
2013,05,01,09,50,8.40
2013,05,01,09,51,8.50
2013,05,01,09,52,8.60
2013,05,01,09,53,8.60
2013,05,01,09,54,8.70
2013,05,01,09,55,8.80
2013,05,01,09,56,8.80
2013,05,01,09,57,8.90
2013,05,01,09,58,9.00
2013,05,01,09,59,9.00
2013,05,01,10,00,9.10
2013,05,01,10,01,9.20
2013,05,01,10,02,9.20
2013,05,01,10,03,9.30
2013,05,01,10,04,9.30
2013,05,01,10,05,9.40
2013,05,01,10,06,9.50
2013,05,01,10,07,9.70
2013,05,01,10,08,9.80
2013,05,01,10,09,9.90
2013,05,01,10,10,10.00
2013,05,01,10,11,10.10
2013,05,01,10,12,10.10
2013,05,01,10,13,10.20
2013,05,01,10,14,10.20
2013,05,01,10,15,10.20
2013,05,01,10,16,10.20
2013,05,01,10,17,10.30
2013,05,01,10,18,10.30
2013,05,01,10,19,10.40
2013,05,01,10,20,10.50
2013,05,01,10,21,10.50
2013,05,01,10,22,10.50
2013,05,01,10,23,10.60
2013,05,01,10,24,10.70
2013,05,01,10,25,10.70
2013,05,01,10,26,10.70
2013,05,01,10,27,10.70
2013,05,01,10,28,10.70
2013,05,01,10,29,10.80
2013,05,01,10,30,10.80
2013,05,01,10,31,10.80
2013,05,01,10,32,10.80
2013,05,01,10,33,10.80
2013,05,01,10,34,10.80
2013,05,01,10,35,10.80
2013,05,01,10,36,10.80
2013,05,01,10,37,10.80
2013,05,01,10,38,10.80
2013,05,01,10,39,10.80
2013,05,01,10,40,10.80
2013,05,01,10,41,10.80
2013,05,01,10,42,10.80
2013,05,01,10,43,10.80
2013,05,01,10,44,10.80
2013,05,01,10,45,10.90
2013,05,01,10,46,10.90
2013,05,01,10,47,10.90
2013,05,01,10,48,11.00
2013,05,01,10,49,11.10
2013,05,01,10,50,11.20
2013,05,01,10,51,11.20
2013,05,01,10,52,11.20
2013,05,01,10,53,11.30
2013,05,01,10,54,11.30
2013,05,01,10,55,11.30
2013,05,01,10,56,11.30
2013,05,01,10,57,11.20
2013,05,01,10,58,11.20
2013,05,01,10,59,11.20
2013,05,01,11,00,11.20
2013,05,01,11,01,11.20
2013,05,01,11,02,11.20
2013,05,01,11,03,11.30
2013,05,01,11,04,11.30
2013,05,01,11,05,11.40
2013,05,01,11,06,11.50
2013,05,01,11,07,11.50
2013,05,01,11,08,11.60
2013,05,01,11,09,11.60
2013,05,01,11,10,11.60
2013,05,01,11,11,11.60
2013,05,01,11,12,11.60
2013,05,01,11,13,11.60
2013,05,01,11,14,11.60
2013,05,01,11,15,11.70
2013,05,01,11,16,11.70
2013,05,01,11,17,11.70
2013,05,01,11,18,11.60
2013,05,01,11,19,11.60
2013,05,01,11,20,11.60
2013,05,01,11,21,11.60
2013,05,01,11,22,11.60
2013,05,01,11,23,11.60
2013,05,01,11,24,11.60
2013,05,01,11,25,11.70
2013,05,01,11,26,11.80
2013,05,01,11,27,11.80
2013,05,01,11,28,11.90
2013,05,01,11,29,12.00
2013,05,01,11,30,12.00
2013,05,01,11,31,12.00
2013,05,01,11,32,12.00
2013,05,01,11,33,12.00
2013,05,01,11,34,12.00
2013,05,01,11,35,11.90
2013,05,01,11,36,11.90
2013,05,01,11,37,11.90
